Location: Agua Amarilla
(10.0342°N, 66.8490°W)
Time: 05:16:17
(UTC+00:00)

Ariane H10 - Pass Details

Date: 26 June 2022
Orbit: 387 x 33266 km, 7.6° (Epoch: 18 August)

Event Time Altitude Azimuth Distance (km) Brightness Sun altitude
Rises 23:16:08 0° 268° (W) 4,665 8.8 -6.3°
Reaches altitude 10° 23:20:47 10° 257° (WSW) 2,321 6.9 -7.4°
Maximum altitude 23:24:24 27° 196° (SSW) 892 3.8 -8.2°
Enters shadow 23:26:31 11° 133° (SE) 1,347 4.2 -8.6°
